SCP
0 0 0 0 -0 -0 0 -0 -0 -0 0 -0 -0 0 0 -0 0 0 0 -0 0 0 -0 -0 -0 -0 0 0 0 -0 -0 -0 -0 -0 -0 -0 -0 -0 -0 -0 0 -0 -0
0 0 0 0 0 -0 0 -0 0 0 -0 -0 0 0 -0 -0 -0 0 -0 -0 0 0 0 -0 -0 -0 -0 0 -0 0 0 -0 -0 -0 -0 -0 0 0 -0 -0 0 -0 -0
0 0 0 0 0 -0 -0 -0 -0 0 0 0 0 -0 0 0 -0 0 -0 -0 0 0 0 0 0 -0 -0 -0 -0 0 0 0 -0 -0 -0 0 0 -0 0 -0 -0 -0 -0
0 0 0 0 0 -0 -0 -0 -0 0 0 0 0 0 0 0 0 0 0 -0 -0 0 0 -0 -0 0 0 -0 0 0 0 -0 0 0 0 -0 0 -0 0 -0 -0 -0 -0
0 0 0 0 0 0 0 -0 -0 0 0 0 0 0 0 0 -0 -0 0 -0 0 -0 -0 -0 -0 -0 0 -0 -0 -0 0 -0 0 -0 0 0 0 0 0 0 0 0 0
0 0 0 0 0 0 0 0 0 0 0 0 0 0 0 0 0 0 0 -0 -0 -0 -0 -0 -0 -0 -0 0 0 -0 -0 -0 0 0 0 0 0 0 0 0 -0 0 0
0 0 0 0 0 0 0 -0 -0 0 0 0 -0 -0 0 -0 0 -0 0 -0 -0 -0 -0 -0 -0 -0 -0 -0 -0 -0 -0 -0 0 0 0 0 -0 0 -0 -0 0 0 0
0 0 0 0 0 0 0 -0 0 0 0 0 0 -0 -0 -0 -0 -0 -0 -0 -0 -0 -0 -0 -0 -0 -0 -0 -0 0 0 0 0 -0 0 0 0 -0 -0 -0 0 0 0
0 -0 0 0 0 -0 -0 -0 -0 -0 -0 -0 -0 -0 -0 -0 -0 -0 -0 0 0 -0 -0 -0 -0 -0 -0 -0 -0 -0 0 0 0 -0 -0 0 0 -0 -0 -0 0 0 0
-0 -0 -0 -0 -0 0 -0 -0 -0 -0 -0 -0 -0 -0 -0 0 -0 -0 -0 0 0 0 -0 -0 -0 -0 -0 -0 -0 -0 -0 -0 0 0 -0 -0 -0 -0 -0 -0 -0 -0 -0
-0 -0 -0 -0 -0 -0 -0 -0 -0 -0 -0 -0 -0 -0 0 0 0 -0 -0 0 0 0 -0 -0 -0 -0 -0 -0 -0 -0 -0 -0 -0 -0 -0 0 -0 0 0 -0 -0 -0 -0
-0 -0 -0 -0 -0 -0 -0 0 0 -0 -0 0 -0 -0 0 -0 0 0 0 0 -0 0 0 0 -0 -0 -0 -0 -0 -0 -0 0 0 0 0 -0 -0 -0 0 0 -0 -0 -0
-0 -0 -0 -0 -0 -0 -0 -0 0 0 -0 -0 0 -0 -0 0 -0 0 0 0 -0 -0 -0 -0 -0 0 -0 -0 -0 -0 0 0 -0 0 0 0 0 -0 -0 0 0 0 -0
-0 -0 -0 -0 0 -0 -0 -0 -0 0 0 -0 -0 -0 -0 0 0 0 0 -0 0 0 0 0 0 0 0 -0 0 -0 0 0 -0 0 0 0 0 0 0 0 0 -0 -0
-0 -0 -0 -0 0 -0 -0 -0 0 0 -0 -0 -0 -0 -0 -0 0 0 0 0 0 0 0 0 0 0 0 0 0 0 0 0 0 -0 -0 0 0 0 0 -0 0 -0 -0
-0 -0 -0 0 0 0 0 -0 0 0 0 0 0 -0 -0 0 0 0 0 0 0 0 0 0 0 0 0 0 -0 0 0 0 0 0 0 -0 0 0 0 -0 -0 0 0
-0 -0 -0 -0 -0 -0 -0 -0 -0 0 0 0 0 -0 -0 -0 0 0 0 0 0 0 0 0 0 0 0 -0 -0 -0 0 0 0 -0 -0 0 0 0 0 0 0 -0 0
0 0 -0 -0 -0 -0 -0 -0 0 0 -0 -0 -0 -0 -0 0 0 0 0 0 0 0 0 0 0 -0 -0 0 -0 -0 -0 0 0 -0 -0 -0 0 -0 -0 0 0 0 0
-0 -0 -0 -0 -0 -0 -0 -0 -0 -0 -0 -0 -0 -0 -0 0 0 -0 0 -0 0 0 0 -0 -0 -0 -0 -0 0 0 0 0 -0 0 -0 0 0 0 -0 0 0 0 0
0 0 -0 -0 -0 -0 0 -0 -0 -0 -0 -0 0 0 0 0 0 0 -0 0 0 -0 -0 -0 -0 -0 -0 0 0 0 0 0 0 0 0 0 -0 0 0 -0 -0 -0 0
0 -0 -0 -0 -0 0 0 0 0 0 0 0 0 0 0 -0 -0 0 -0 0 0 0 -0 -0 0 0 0 0 0 0 0 0 0 0 0 0 0 0 0 -0 0 0 0
-0 -0 -0 -0 -0 -0 0 0 -0 0 0 0 0 0 -0 -0 -0 -0 -0 0 0 -0 -0 0 0 0 0 0 0 0 0 0 0 0 0 0 0 0 0 0 -0 0 0
-0 -0 -0 -0 -0 -0 -0 0 0 0 -0 0 0 -0 -0 0 0 -0 -0 -0 -0 -0 0 0 0 0 0 0 0 0 0 0 0 0 0 0 0 0 0 0 0 0 0
-0 -0 -0 -0 -0 -0 -0 -0 0 0 0 0 0 0 0 0 -0 -0 -0 -0 0 0 0 0 0 0 0 0 0 0 0 0 0 0 0 0 0 0 0 0 0 0 0
-0 -0 -0 -0 -0 -0 -0 -0 -0 0 0 0 0 -0 -0 0 -0 -0 -0 -0 0 0 0 0 0 0 0 0 0 0 0 0 0 0 0 0 0 0 0 0 0 0 0
-0 -0 -0 -0 -0 -0 -0 -0 -0 -0 -0 -0 0 -0 0 -0 -0 -0 -0 0 0 0 0 0 0 0 0 0 0 0 0 0 0 0 0 0 0 0 0 0 0 0 0
Wind_Speed_500mb
33 29 30 32 33 36 40 40 41 40 41 36 31 31 30 30 26 25 22 22 24 22 16 15 9 7 7 5 8 8 8 8 16 17 19 19 17 16 17 16 16 17 16
36 36 33 28 34 35 37 39 40 40 38 34 28 24 20 21 21 21 17 18 18 14 11 10 7 3 3 4 8 11 14 19 18 18 19 16 20 15 14 13 14 15 16
37 37 33 31 33 35 36 36 35 31 30 26 21 18 17 17 17 18 15 16 16 12 8 6 10 7 5 7 11 16 19 15 15 15 15 12 7 7 8 9 12 13 14
39 38 35 31 33 34 35 33 31 29 26 20 15 15 15 17 18 16 14 14 11 8 7 6 10 8 8 10 15 19 20 15 10 11 9 10 4 8 6 7 11 11 12
40 36 35 32 31 31 30 27 24 22 19 15 13 12 13 13 11 11 11 13 11 11 9 10 9 10 13 13 15 16 18 10 9 9 7 9 6 4 5 4 9 10 12
40 37 33 30 29 29 28 25 23 19 16 15 14 13 13 12 10 10 13 13 14 14 12 13 13 12 12 11 12 11 12 10 6 7 7 3 8 9 1 4 6 7 10
41 36 31 28 27 27 26 24 20 17 17 18 16 14 13 11 12 11 10 12 11 12 13 13 13 13 14 13 12 8 7 6 9 11 7 3 3 4 3 5 7 7 9
38 36 32 29 26 25 26 23 20 17 16 16 14 15 10 10 9 6 7 10 11 12 11 12 12 14 16 15 11 5 5 3 3 24 6 2 5 6 6 8 6 6 8
37 36 33 27 25 24 23 20 18 15 14 13 12 14 14 13 9 4 6 7 9 11 11 12 11 13 16 14 9 5 6 3 10 12 6 5 7 7 8 5 7 5 9
36 32 28 29 26 24 22 19 16 14 12 12 12 11 12 13 7 7 12 9 10 11 11 12 11 10 11 12 11 8 7 6 7 5 3 4 5 6 7 7 8 7 8
36 34 32 28 24 22 21 19 16 11 9 11 12 13 12 11 4 4 2 12 14 15 13 14 12 7 7 9 12 12 10 9 9 12 3 4 4 4 5 7 10 10 10
42 38 33 29 24 22 22 21 16 11 8 9 10 13 13 11 8 1 6 9 18 15 14 12 13 11 12 13 14 15 18 15 11 10 10 7 10 6 7 10 9 10 11
38 35 32 30 28 25 24 20 14 10 10 8 8 8 8 7 7 3 4 7 13 12 13 14 15 20 23 25 22 23 23 24 22 20 17 14 13 11 11 11 15 14 11
39 32 28 30 29 25 23 19 11 8 7 9 10 9 8 8 10 8 3 2 6 12 13 14 17 21 24 25 25 28 30 30 30 30 30 26 23 23 20 19 14 19 18
37 34 29 30 29 25 22 19 10 6 7 8 10 12 12 10 10 12 9 10 10 11 13 15 15 19 25 28 34 30 30 31 32 38 35 31 30 29 26 23 20 26 20
39 32 28 29 29 26 22 21 15 6 5 11 11 11 12 17 15 13 10 11 10 13 25 20 15 19 23 26 26 34 34 43 44 40 40 38 31 34 30 29 28 22 39
38 39 34 28 25 23 18 13 14 11 9 9 12 10 9 15 13 13 14 11 11 13 11 17 14 11 17 20 25 31 34 34 31 40 45 52 50 36 40 39 35 31 36
37 42 37 33 30 27 23 21 18 19 18 11 8 4 5 14 7 5 9 11 13 15 12 10 11 10 12 17 23 26 31 34 38 38 38 49 54 45 50 46 42 41 41
35 33 32 29 24 22 18 19 20 22 23 17 12 5 4 8 6 3 3 2 4 7 5 4 6 10 10 15 20 21 26 30 32 35 39 41 53 58 55 53 49 44 43
35 33 30 26 25 21 20 20 19 19 22 18 13 8 7 5 5 3 3 4 5 4 4 5 5 8 10 16 20 20 19 24 29 31 27 31 39 44 43 62 53 51 50
41 39 35 32 29 28 24 18 14 11 17 13 7 8 5 3 6 6 3 4 4 5 5 3 8 11 13 14 19 19 14 12 12 16 16 17 18 21 22 22 39 44 46
45 44 42 36 31 30 29 20 13 12 13 12 4 3 2 3 5 5 4 5 6 6 5 9 12 14 14 16 18 21 12 11 4 27 16 14 15 17 18 21 28 32 40
49 49 47 43 35 31 32 29 21 14 16 17 13 8 10 4 5 6 5 5 8 8 9 13 14 16 14 21 21 13 10 8 23 8 21 11 8 16 15 23 28 36 38
47 40 41 45 42 39 34 35 27 15 16 20 26 24 19 12 9 3 6 9 11 9 12 17 19 21 23 25 23 20 20 24 13 15 14 23 20 14 23 24 24 21 25
44 48 32 33 39 43 45 37 25 22 19 25 23 22 17 16 11 11 11 9 12 13 17 19 24 27 27 22 20 16 18 18 20 25 23 17 20 18 18 22 23 23 27
41 50 46 34 34 39 47 41 30 28 23 23 24 26 22 19 18 17 15 16 15 17 22 24 22 21 21 19 17 18 17 11 14 14 17 21 22 14 23 14 17 17 16
Wind_Direction_500mb
119 122 122 122 124 124 123 120 117 128 141 136 126 122 126 128 140 143 141 133 134 135 127 137 142 137 146 106 109 86 92 107 130 119 117 118 113 106 104 102 101 105 108
144 128 121 125 128 130 128 124 121 120 125 129 128 124 125 129 140 147 144 136 141 139 133 144 163 174 187 157 132 111 93 99 117 120 114 111 110 102 90 100 113 118 111
144 133 131 130 126 130 134 131 128 130 130 126 128 128 125 133 141 142 137 136 147 139 148 187 201 182 160 153 143 128 127 106 116 117 122 135 106 96 76 90 109 114 114
146 138 133 132 127 129 128 129 133 128 128 131 128 115 119 123 129 136 141 148 171 171 157 158 176 166 132 132 133 141 145 114 116 116 136 166 201 127 114 85 108 113 109
146 141 136 134 135 133 130 134 132 131 130 131 133 125 126 131 147 146 156 163 177 168 145 142 147 143 138 133 137 145 158 144 124 119 118 128 159 211 136 63 128 134 136
150 145 139 136 137 139 137 137 135 134 138 136 124 126 132 146 156 167 159 155 156 147 146 148 140 138 148 148 145 157 155 165 129 155 154 161 161 157 141 119 135 135 136
155 149 144 143 141 142 143 142 142 140 134 129 126 126 122 131 148 154 162 155 158 156 153 155 156 148 151 152 155 161 176 189 204 183 76 81 209 191 186 164 146 149 152
158 154 153 151 149 151 150 144 141 130 129 132 122 117 117 121 128 143 147 155 165 164 157 160 156 153 155 156 146 163 174 38 129 195 192 157 179 162 155 157 160 164 166
164 163 162 160 162 163 156 150 139 131 128 131 142 134 130 118 132 170 161 173 170 171 168 173 169 146 152 158 150 112 140 36 121 144 168 158 165 156 157 174 173 201 184
169 171 169 167 169 166 165 157 156 150 150 149 143 142 138 145 168 48 214 203 193 186 176 182 178 158 157 170 179 171 179 171 135 164 154 163 150 168 183 177 192 192 186
175 172 168 174 173 171 170 169 174 171 170 163 157 160 173 172 173 47 117 221 205 201 194 184 189 183 185 194 210 222 218 210 227 227 235 200 193 215 215 196 198 196 198
180 178 180 178 180 181 178 182 182 184 184 184 181 188 186 184 182 176 19 238 204 204 199 204 194 226 246 262 249 247 250 254 246 221 218 245 244 248 247 240 233 214 206
181 188 191 188 185 188 189 187 183 197 202 195 202 208 202 204 204 193 39 91 178 207 216 213 206 216 239 257 259 253 251 256 255 242 234 241 247 257 254 259 243 247 234
192 194 194 195 192 191 192 193 198 193 202 183 198 216 239 239 226 231 243 195 170 198 214 224 225 231 236 248 251 261 255 256 260 257 257 260 263 258 261 275 258 242 241
198 196 195 194 191 187 190 196 189 189 203 200 221 242 259 276 257 239 240 239 248 240 223 229 238 244 246 258 253 245 256 263 262 264 263 262 264 261 253 260 262 244 257
191 193 188 188 191 193 192 202 212 231 276 232 239 254 276 285 281 258 248 242 263 264 253 244 250 257 259 265 242 241 256 261 260 262 257 259 259 257 254 248 247 254 248
193 192 193 188 189 197 195 212 236 243 250 245 235 249 293 311 287 253 244 247 256 255 252 247 252 267 264 258 252 254 264 272 273 268 248 241 253 259 253 252 248 252 251
205 202 201 204 210 220 224 223 241 257 253 218 210 229 306 339 317 211 232 235 266 270 265 259 272 253 264 260 266 265 268 270 271 277 257 244 251 255 247 247 250 254 255
213 207 203 207 212 219 230 246 255 246 226 209 213 253 315 351 27 83 129 84 353 272 311 289 273 285 298 290 288 287 274 271 277 281 269 257 254 259 248 245 245 254 255
219 216 210 205 205 215 226 236 226 221 207 198 210 252 281 300 320 294 288 302 339 358 338 347 354 340 327 323 319 319 306 286 289 291 284 272 268 268 264 240 244 252 255
224 220 217 213 213 218 221 214 205 186 177 175 211 260 254 304 1 327 289 321 321 324 325 337 326 323 327 336 341 336 339 340 306 355 312 291 285 286 284 243 249 257 252
228 228 225 221 220 221 223 221 203 187 173 171 156 204 84 294 346 323 324 346 348 356 307 310 318 321 327 331 329 334 335 333 342 341 11 327 298 302 299 287 279 271 261
234 230 228 227 221 219 215 218 208 203 194 199 239 238 299 247 255 3 338 327 320 325 322 317 319 311 304 310 307 300 317 302 323 299 323 349 336 319 299 299 280 271 273
230 234 230 228 226 220 217 216 216 204 216 231 241 249 236 239 239 309 334 327 301 291 301 304 303 301 300 296 294 295 286 287 295 299 308 311 308 313 309 297 288 268 277
231 219 218 214 217 218 218 214 217 213 226 230 243 225 239 241 257 276 320 310 301 273 286 298 298 294 294 297 303 305 300 296 291 289 295 301 307 320 318 300 295 286 275
229 217 212 209 211 214 216 216 218 216 221 227 224 243 245 255 269 270 286 305 302 280 291 298 294 292 292 290 283 284 286 281 284 303 300 306 303 303 315 323 305 307 292
Wind_Speed_850mb
33 29 30 32 33 36 40 40 41 40 41 36 31 31 30 30 26 25 22 22 24 22 16 15 9 7 7 5 8 8 8 8 16 17 19 19 17 16 17 16 16 17 16
36 36 33 28 34 35 37 39 40 40 38 34 28 24 20 21 21 21 17 18 18 14 11 10 7 3 3 4 8 11 14 19 18 18 19 16 20 15 14 13 14 15 16
37 37 33 31 33 35 36 36 35 31 30 26 21 18 17 17 17 18 15 16 16 12 8 6 10 7 5 7 11 16 19 15 15 15 15 12 7 7 8 9 12 13 14
39 38 35 31 33 34 35 33 31 29 26 20 15 15 15 17 18 16 14 14 11 8 7 6 10 8 8 10 15 19 20 15 10 11 9 10 4 8 6 7 11 11 12
40 36 35 32 31 31 30 27 24 22 19 15 13 12 13 13 11 11 11 13 11 11 9 10 9 10 13 13 15 16 18 10 9 9 7 9 6 4 5 4 9 10 12
40 37 33 30 29 29 28 25 23 19 16 15 14 13 13 12 10 10 13 13 14 14 12 13 13 12 12 11 12 11 12 10 6 7 7 3 8 9 1 4 6 7 10
41 36 31 28 27 27 26 24 20 17 17 18 16 14 13 11 12 11 10 12 11 12 13 13 13 13 14 13 12 8 7 6 9 11 7 3 3 4 3 5 7 7 9
38 36 32 29 26 25 26 23 20 17 16 16 14 15 10 10 9 6 7 10 11 12 11 12 12 14 16 15 11 5 5 3 3 24 6 2 5 6 6 8 6 6 8
37 36 33 27 25 24 23 20 18 15 14 13 12 14 14 13 9 4 6 7 9 11 11 12 11 13 16 14 9 5 6 3 10 12 6 5 7 7 8 5 7 5 9
36 32 28 29 26 24 22 19 16 14 12 12 12 11 12 13 7 7 12 9 10 11 11 12 11 10 11 12 11 8 7 6 7 5 3 4 5 6 7 7 8 7 8
36 34 32 28 24 22 21 19 16 11 9 11 12 13 12 11 4 4 2 12 14 15 13 14 12 7 7 9 12 12 10 9 9 12 3 4 4 4 5 7 10 10 10
42 38 33 29 24 22 22 21 16 11 8 9 10 13 13 11 8 1 6 9 18 15 14 12 13 11 12 13 14 15 18 15 11 10 10 7 10 6 7 10 9 10 11
38 35 32 30 28 25 24 20 14 10 10 8 8 8 8 7 7 3 4 7 13 12 13 14 15 20 23 25 22 23 23 24 22 20 17 14 13 11 11 11 15 14 11
39 32 28 30 29 25 23 19 11 8 7 9 10 9 8 8 10 8 3 2 6 12 13 14 17 21 24 25 25 28 30 30 30 30 30 26 23 23 20 19 14 19 18
37 34 29 30 29 25 22 19 10 6 7 8 10 12 12 10 10 12 9 10 10 11 13 15 15 19 25 28 34 30 30 31 32 38 35 31 30 29 26 23 20 26 20
39 32 28 29 29 26 22 21 15 6 5 11 11 11 12 17 15 13 10 11 10 13 25 20 15 19 23 26 26 34 34 43 44 40 40 38 31 34 30 29 28 22 39
38 39 34 28 25 23 18 13 14 11 9 9 12 10 9 15 13 13 14 11 11 13 11 17 14 11 17 20 25 31 34 34 31 40 45 52 50 36 40 39 35 31 36
37 42 37 33 30 27 23 21 18 19 18 11 8 4 5 14 7 5 9 11 13 15 12 10 11 10 12 17 23 26 31 34 38 38 38 49 54 45 50 46 42 41 41
35 33 32 29 24 22 18 19 20 22 23 17 12 5 4 8 6 3 3 2 4 7 5 4 6 10 10 15 20 21 26 30 32 35 39 41 53 58 55 53 49 44 43
35 33 30 26 25 21 20 20 19 19 22 18 13 8 7 5 5 3 3 4 5 4 4 5 5 8 10 16 20 20 19 24 29 31 27 31 39 44 43 62 53 51 50
41 39 35 32 29 28 24 18 14 11 17 13 7 8 5 3 6 6 3 4 4 5 5 3 8 11 13 14 19 19 14 12 12 16 16 17 18 21 22 22 39 44 46
45 44 42 36 31 30 29 20 13 12 13 12 4 3 2 3 5 5 4 5 6 6 5 9 12 14 14 16 18 21 12 11 4 27 16 14 15 17 18 21 28 32 40
49 49 47 43 35 31 32 29 21 14 16 17 13 8 10 4 5 6 5 5 8 8 9 13 14 16 14 21 21 13 10 8 23 8 21 11 8 16 15 23 28 36 38
47 40 41 45 42 39 34 35 27 15 16 20 26 24 19 12 9 3 6 9 11 9 12 17 19 21 23 25 23 20 20 24 13 15 14 23 20 14 23 24 24 21 25
44 48 32 33 39 43 45 37 25 22 19 25 23 22 17 16 11 11 11 9 12 13 17 19 24 27 27 22 20 16 18 18 20 25 23 17 20 18 18 22 23 23 27
41 50 46 34 34 39 47 41 30 28 23 23 24 26 22 19 18 17 15 16 15 17 22 24 22 21 21 19 17 18 17 11 14 14 17 21 22 14 23 14 17 17 16
Wind_Direction_850mb
119 122 122 122 124 124 123 120 117 128 141 136 126 122 126 128 140 143 141 133 134 135 127 137 142 137 146 106 109 86 92 107 130 119 117 118 113 106 104 102 101 105 108
144 128 121 125 128 130 128 124 121 120 125 129 128 124 125 129 140 147 144 136 141 139 133 144 163 174 187 157 132 111 93 99 117 120 114 111 110 102 90 100 113 118 111
144 133 131 130 126 130 134 131 128 130 130 126 128 128 125 133 141 142 137 136 147 139 148 187 201 182 160 153 143 128 127 106 116 117 122 135 106 96 76 90 109 114 114
146 138 133 132 127 129 128 129 133 128 128 131 128 115 119 123 129 136 141 148 171 171 157 158 176 166 132 132 133 141 145 114 116 116 136 166 201 127 114 85 108 113 109
146 141 136 134 135 133 130 134 132 131 130 131 133 125 126 131 147 146 156 163 177 168 145 142 147 143 138 133 137 145 158 144 124 119 118 128 159 211 136 63 128 134 136
150 145 139 136 137 139 137 137 135 134 138 136 124 126 132 146 156 167 159 155 156 147 146 148 140 138 148 148 145 157 155 165 129 155 154 161 161 157 141 119 135 135 136
155 149 144 143 141 142 143 142 142 140 134 129 126 126 122 131 148 154 162 155 158 156 153 155 156 148 151 152 155 161 176 189 204 183 76 81 209 191 186 164 146 149 152
158 154 153 151 149 151 150 144 141 130 129 132 122 117 117 121 128 143 147 155 165 164 157 160 156 153 155 156 146 163 174 38 129 195 192 157 179 162 155 157 160 164 166
164 163 162 160 162 163 156 150 139 131 128 131 142 134 130 118 132 170 161 173 170 171 168 173 169 146 152 158 150 112 140 36 121 144 168 158 165 156 157 174 173 201 184
169 171 169 167 169 166 165 157 156 150 150 149 143 142 138 145 168 48 214 203 193 186 176 182 178 158 157 170 179 171 179 171 135 164 154 163 150 168 183 177 192 192 186
175 172 168 174 173 171 170 169 174 171 170 163 157 160 173 172 173 47 117 221 205 201 194 184 189 183 185 194 210 222 218 210 227 227 235 200 193 215 215 196 198 196 198
180 178 180 178 180 181 178 182 182 184 184 184 181 188 186 184 182 176 19 238 204 204 199 204 194 226 246 262 249 247 250 254 246 221 218 245 244 248 247 240 233 214 206
181 188 191 188 185 188 189 187 183 197 202 195 202 208 202 204 204 193 39 91 178 207 216 213 206 216 239 257 259 253 251 256 255 242 234 241 247 257 254 259 243 247 234
192 194 194 195 192 191 192 193 198 193 202 183 198 216 239 239 226 231 243 195 170 198 214 224 225 231 236 248 251 261 255 256 260 257 257 260 263 258 261 275 258 242 241
198 196 195 194 191 187 190 196 189 189 203 200 221 242 259 276 257 239 240 239 248 240 223 229 238 244 246 258 253 245 256 263 262 264 263 262 264 261 253 260 262 244 257
191 193 188 188 191 193 192 202 212 231 276 232 239 254 276 285 281 258 248 242 263 264 253 244 250 257 259 265 242 241 256 261 260 262 257 259 259 257 254 248 247 254 248
193 192 193 188 189 197 195 212 236 243 250 245 235 249 293 311 287 253 244 247 256 255 252 247 252 267 264 258 252 254 264 272 273 268 248 241 253 259 253 252 248 252 251
205 202 201 204 210 220 224 223 241 257 253 218 210 229 306 339 317 211 232 235 266 270 265 259 272 253 264 260 266 265 268 270 271 277 257 244 251 255 247 247 250 254 255
213 207 203 207 212 219 230 246 255 246 226 209 213 253 315 351 27 83 129 84 353 272 311 289 273 285 298 290 288 287 274 271 277 281 269 257 254 259 248 245 245 254 255
219 216 210 205 205 215 226 236 226 221 207 198 210 252 281 300 320 294 288 302 339 358 338 347 354 340 327 323 319 319 306 286 289 291 284 272 268 268 264 240 244 252 255
224 220 217 213 213 218 221 214 205 186 177 175 211 260 254 304 1 327 289 321 321 324 325 337 326 323 327 336 341 336 339 340 306 355 312 291 285 286 284 243 249 257 252
228 228 225 221 220 221 223 221 203 187 173 171 156 204 84 294 346 323 324 346 348 356 307 310 318 321 327 331 329 334 335 333 342 341 11 327 298 302 299 287 279 271 261
234 230 228 227 221 219 215 218 208 203 194 199 239 238 299 247 255 3 338 327 320 325 322 317 319 311 304 310 307 300 317 302 323 299 323 349 336 319 299 299 280 271 273
230 234 230 228 226 220 217 216 216 204 216 231 241 249 236 239 239 309 334 327 301 291 301 304 303 301 300 296 294 295 286 287 295 299 308 311 308 313 309 297 288 268 277
231 219 218 214 217 218 218 214 217 213 226 230 243 225 239 241 257 276 320 310 301 273 286 298 298 294 294 297 303 305 300 296 291 289 295 301 307 320 318 300 295 286 275
229 217 212 209 211 214 216 216 218 216 221 227 224 243 245 255 269 270 286 305 302 280 291 298 294 292 292 290 283 284 286 281 284 303 300 306 303 303 315 323 305 307 292